Location: Unspecified
(0.0000°N, 0.0000°E)
Time: 07:40:04
(UTC+00:00)

AO-85 - Visible Passes

Search period start: 19 March 2019 00:00
Search period end: 29 March 2019 00:00
Orbit: 495 x 789 km, 64.8° (Epoch: 14 March)

Date Brightness Start Highest point End Pass type
(mag) Time Alt. Az. Time Alt. Az. Time Alt. Az.
19 Mar ? 05:11:57 10° NNW 05:16:10 83° ENE 05:20:06 10° SSE visible
20 Mar ? 03:59:05 10° NE 04:00:34 12° ENE 04:02:01 10° E visible
20 Mar ? 05:37:22 10° NW 05:40:44 24° WSW 05:43:56 10° SSW visible
21 Mar ? 04:23:46 29° NNE 04:25:19 41° ENE 04:29:03 10° SE visible
22 Mar ? 04:50:14 44° SW 04:50:14 44° SW 04:53:41 10° S visible
